Weather History for Fountain Dale, PA

Change the Weather History Date:

Friday, September 20, 2013

  Actual Average (KHGR) Record (KHGR)
Temperature  
Mean Temperature 68 °F -  
Max Temperature 80 °F 72 °F 84 °F (1998)
Min Temperature 57 °F 53 °F 44 °F (2004)
Cooling Degree Days 4    
Growing Degree Days 18 (Base 50)    
Moisture  
Dew Point 56 °F    
Average Humidity 70    
Maximum Humidity 82    
Minimum Humidity 47    
Precipitation  
Precipitation 0.02 in - - ()
Sea Level Pressure  
Sea Level Pressure 30.03 in    
Wind  
Wind Speed 0 mph (NW)    
Max Wind Speed 6 mph    
Max Gust Speed -    
Visibility 7 miles    
Events      
Averages and records for this station are not official NWS values.
T = Trace of Precipitation, MM = Missing Value Source: NWS Daily Summary

Daily Weather History Graph

Daily Weather History Graph

Search for Another Location

Airport:

Trip Planner

Search our weather history database for the weather conditions in past years. The results will help you decide how hot, cold, wet, or windy it might be!

Date:

Astronomy

Sep. 20, 2013 Rise Set
Actual Time 6:55 AM EDT 7:09 PM EDT
Civil Twilight 6:28 AM EDT 7:36 PM EDT
Nautical Twilight 5:57 AM EDT 8:08 PM EDT
Astronomical Twilight 5:24 AM EDT 8:40 PM EDT
Moon 7:42 PM EDT (9/20) 8:07 AM EDT (9/20)
Length of Visible Light 13h 07m
Length of Day
12h 14m
Full, 98% of the Moon is Illuminated
Sep 20
Full
Sep 26
Last Quarter
Oct 4
New
Oct 11
First Quarter
Oct 18
Full

Hourly Weather History & Observations

Time (EDT) Temp. Heat Index Dew Point Humidity Pressure Visibility Wind Dir Wind Speed Gust Speed Precip Events Conditions
12:53 AM 62.1 °F - 55.0 °F 78% 30.06 in 10.0 mi Calm Calm - N/A   Clear
1:53 AM 62.1 °F - 55.0 °F 78% 30.06 in 10.0 mi Calm Calm - N/A   Clear
2:53 AM 61.0 °F - 54.0 °F 78% 30.05 in 8.0 mi Calm Calm - N/A   Clear
3:53 AM 61.0 °F - 54.0 °F 78% 30.05 in 9.0 mi Calm Calm - N/A   Clear
4:53 AM 60.1 °F - 53.1 °F 78% 30.06 in 9.0 mi Calm Calm - N/A   Scattered Clouds
5:53 AM 59.0 °F - 53.1 °F 81% 30.06 in 7.0 mi Calm Calm - N/A   Partly Cloudy
6:43 AM 57.2 °F - 51.8 °F 82% 30.08 in 1.8 mi Calm Calm - N/A   Haze
6:53 AM 57.9 °F - 52.0 °F 81% 30.06 in 1.0 mi Calm Calm - N/A   Haze
7:02 AM 57.2 °F - 51.8 °F 82% 30.09 in 0.5 mi Calm Calm - N/A   Haze
7:27 AM 59.0 °F - 53.6 °F 82% 30.08 in 1.0 mi Calm Calm - N/A   Haze
7:41 AM 57.2 °F - 51.8 °F 82% 30.08 in 0.2 mi Calm Calm - N/A   Haze
7:53 AM 57.9 °F - 52.0 °F 81% 30.07 in 3.0 mi Calm Calm - N/A   Haze
8:53 AM 64.0 °F - 57.0 °F 78% 30.06 in 10.0 mi Calm Calm - N/A   Clear
9:53 AM 66.9 °F - 57.9 °F 73% 30.06 in 10.0 mi Calm Calm - 0.02 in   Clear
10:53 AM 69.1 °F - 57.9 °F 68% 30.04 in 10.0 mi NNE 3.5 mph - N/A   Clear
11:53 AM 73.9 °F - 57.9 °F 57% 30.04 in 10.0 mi Calm Calm - N/A   Clear
12:53 PM 75.9 °F - 57.9 °F 54% 30.02 in 10.0 mi Calm Calm - N/A   Clear
1:53 PM 77.0 °F - 57.0 °F 50% 30.00 in 10.0 mi Variable 5.8 mph - N/A   Partly Cloudy
2:57 PM 78.8 °F - 57.2 °F 47% 30.02 in 1.8 mi Variable 4.6 mph - N/A   Haze
3:53 PM 80.1 °F 80.6 °F 57.9 °F 47% 29.97 in 10.0 mi Calm Calm - N/A   Scattered Clouds
4:53 PM 78.1 °F - 57.0 °F 48% 29.95 in 10.0 mi Calm Calm - N/A   Partly Cloudy
5:53 PM 78.1 °F - 57.0 °F 48% 29.94 in 10.0 mi WSW 4.6 mph - N/A   Clear
6:53 PM 72.0 °F - 57.9 °F 61% 29.95 in 10.0 mi Calm Calm - N/A   Clear
7:53 PM 66.9 °F - 57.9 °F 73% 29.95 in 10.0 mi Calm Calm - N/A   Clear
8:53 PM 64.0 °F - 57.9 °F 80% 29.96 in 10.0 mi Calm Calm - N/A   Clear
9:53 PM 64.0 °F - 57.9 °F 80% 29.96 in 10.0 mi Calm Calm - N/A   Clear